QPF
0.00 0.01 0.03 0.03 0.02 0.03 0.05 0.05 0.05 0.09 0.08 0.05 0.02 0.01 0.01 0.00 0.00 0.01 0.02 0.03 0.02 0.02 0.04 0.07 0.08 0.07 0.07 0.06 0.06 0.05 0.04 0.03 0.02 0.02 0.01 0.00 0.00 0.00 0.00 0.00 0.00 0.00 0.00
0.00 0.00 0.01 0.01 0.02 0.03 0.02 0.04 0.09 0.09 0.05 0.04 0.04 0.02 0.01 0.01 0.02 0.02 0.02 0.01 0.02 0.03 0.04 0.05 0.05 0.04 0.03 0.03 0.03 0.02 0.01 0.01 0.02 0.02 0.02 0.00 0.00 0.00 0.00 0.00 0.00 0.00 0.00
0.00 0.00 0.00 0.00 0.01 0.01 0.02 0.05 0.10 0.09 0.05 0.05 0.04 0.02 0.02 0.03 0.03 0.02 0.02 0.01 0.03 0.05 0.06 0.04 0.02 0.01 0.01 0.00 0.00 0.00 0.01 0.01 0.01 0.01 0.02 0.02 0.01 0.00 0.00 0.00 0.00 0.00 0.00
0.00 0.00 0.00 0.00 0.00 0.00 0.00 0.01 0.04 0.05 0.05 0.04 0.02 0.02 0.02 0.02 0.01 0.02 0.02 0.02 0.03 0.03 0.02 0.01 0.00 0.00 0.00 0.00 0.00 0.00 0.00 0.01 0.01 0.01 0.01 0.02 0.02 0.02 0.01 0.00 0.00 0.00 0.00
0.00 0.00 0.00 0.00 0.00 0.00 0.00 0.01 0.01 0.01 0.02 0.02 0.02 0.03 0.03 0.02 0.01 0.01 0.00 0.00 0.00 0.00 0.00 0.00 0.00 0.00 0.00 0.00 0.00 0.00 0.01 0.01 0.01 0.01 0.01 0.01 0.01 0.01 0.01 0.01 0.00 0.00 0.00
0.00 0.00 0.00 0.00 0.00 0.00 0.00 0.00 0.00 0.00 0.00 0.00 0.00 0.00 0.00 0.00 0.00 0.00 0.00 0.00 0.00 0.00 0.00 0.00 0.00 0.00 0.00 0.00 0.00 0.00 0.01 0.01 0.01 0.01 0.01 0.02 0.02 0.01 0.01 0.01 0.00 0.00 0.00
0.00 0.00 0.00 0.00 0.00 0.00 0.00 0.00 0.00 0.00 0.00 0.00 0.00 0.00 0.00 0.00 0.00 0.00 0.00 0.00 0.00 0.00 0.00 0.00 0.00 0.00 0.00 0.00 0.00 0.00 0.00 0.00 0.01 0.00 0.00 0.01 0.01 0.01 0.01 0.01 0.01 0.01 0.01
0.00 0.00 0.00 0.00 0.00 0.00 0.00 0.00 0.00 0.00 0.00 0.00 0.00 0.00 0.00 0.00 0.00 0.00 0.00 0.00 0.00 0.00 0.00 0.00 0.00 0.00 0.00 0.00 0.00 0.00 0.00 0.00 0.01 0.01 0.01 0.01 0.00 0.01 0.03 0.03 0.04 0.04 0.02
0.00 0.00 0.00 0.00 0.00 0.00 0.00 0.00 0.00 0.00 0.00 0.00 0.00 0.00 0.00 0.00 0.00 0.00 0.00 0.00 0.00 0.00 0.00 0.00 0.00 0.00 0.00 0.00 0.00 0.00 0.00 0.01 0.01 0.02 0.02 0.01 0.02 0.02 0.02 0.02 0.04 0.06 0.05
0.00 0.00 0.00 0.00 0.00 0.00 0.00 0.00 0.00 0.00 0.00 0.00 0.00 0.00 0.00 0.00 0.00 0.00 0.00 0.00 0.00 0.00 0.00 0.00 0.00 0.00 0.00 0.00 0.00 0.00 0.00 0.01 0.01 0.01 0.01 0.02 0.02 0.01 0.01 0.02 0.03 0.06 0.06
0.00 0.00 0.00 0.00 0.00 0.00 0.00 0.00 0.00 0.00 0.00 0.00 0.00 0.00 0.00 0.00 0.00 0.00 0.00 0.00 0.00 0.00 0.00 0.00 0.00 0.00 0.00 0.00 0.00 0.00 0.01 0.01 0.01 0.01 0.01 0.01 0.01 0.02 0.02 0.03 0.03 0.03 0.04
0.00 0.00 0.00 0.00 0.00 0.00 0.00 0.00 0.00 0.00 0.00 0.00 0.00 0.00 0.00 0.00 0.00 0.00 0.00 0.00 0.00 0.00 0.00 0.00 0.00 0.00 0.00 0.00 0.00 0.00 0.00 0.00 0.00 0.00 0.00 0.01 0.01 0.02 0.02 0.02 0.02 0.03 0.04
0.01 0.00 0.00 0.00 0.00 0.00 0.00 0.00 0.00 0.00 0.00 0.00 0.00 0.00 0.00 0.00 0.00 0.00 0.00 0.00 0.00 0.00 0.00 0.00 0.00 0.00 0.00 0.00 0.00 0.00 0.00 0.00 0.00 0.00 0.00 0.00 0.01 0.02 0.02 0.03 0.04 0.04 0.05
0.01 0.00 0.00 0.00 0.00 0.00 0.00 0.00 0.00 0.00 0.00 0.00 0.00 0.00 0.00 0.00 0.00 0.00 0.00 0.00 0.00 0.00 0.00 0.00 0.00 0.00 0.00 0.00 0.00 0.00 0.00 0.00 0.00 0.00 0.01 0.01 0.02 0.04 0.05 0.04 0.03 0.03 0.02
0.00 0.00 0.00 0.00 0.00 0.00 0.00 0.00 0.00 0.00 0.00 0.00 0.00 0.00 0.00 0.00 0.00 0.00 0.00 0.00 0.00 0.00 0.00 0.00 0.00 0.00 0.00 0.00 0.00 0.00 0.00 0.00 0.00 0.00 0.01 0.02 0.03 0.06 0.05 0.03 0.03 0.02 0.01
0.00 0.00 0.00 0.00 0.00 0.00 0.00 0.00 0.00 0.00 0.00 0.00 0.00 0.00 0.00 0.00 0.00 0.00 0.00 0.00 0.00 0.00 0.00 0.00 0.00 0.00 0.00 0.00 0.00 0.00 0.00 0.00 0.00 0.00 0.01 0.01 0.01 0.02 0.02 0.01 0.01 0.01 0.02
0.00 0.00 0.00 0.00 0.00 0.00 0.00 0.00 0.00 0.00 0.00 0.00 0.00 0.00 0.00 0.00 0.00 0.00 0.00 0.00 0.00 0.00 0.00 0.00 0.00 0.00 0.00 0.00 0.00 0.00 0.00 0.00 0.00 0.00 0.00 0.01 0.01 0.02 0.00 0.00 0.00 0.02 0.06
0.00 0.00 0.00 0.00 0.00 0.00 0.00 0.00 0.00 0.00 0.00 0.00 0.00 0.00 0.00 0.00 0.00 0.00 0.00 0.00 0.00 0.00 0.00 0.00 0.00 0.00 0.00 0.00 0.00 0.00 0.00 0.00 0.00 0.00 0.01 0.02 0.02 0.01 0.00 0.00 0.01 0.04 0.09
0.00 0.00 0.00 0.00 0.00 0.00 0.00 0.00 0.00 0.00 0.00 0.00 0.00 0.00 0.00 0.00 0.00 0.00 0.00 0.00 0.00 0.00 0.00 0.00 0.00 0.00 0.00 0.00 0.00 0.00 0.00 0.00 0.00 0.00 0.00 0.01 0.01 0.01 0.01 0.02 0.02 0.05 0.09
0.00 0.00 0.00 0.00 0.00 0.00 0.00 0.00 0.00 0.00 0.00 0.00 0.00 0.00 0.00 0.00 0.00 0.00 0.00 0.00 0.00 0.00 0.00 0.00 0.00 0.00 0.00 0.00 0.00 0.00 0.00 0.00 0.00 0.00 0.00 0.00 0.01 0.01 0.02 0.03 0.03 0.06 0.10
0.00 0.00 0.00 0.00 0.00 0.00 0.00 0.00 0.00 0.00 0.00 0.00 0.00 0.00 0.00 0.00 0.00 0.00 0.00 0.00 0.00 0.00 0.00 0.00 0.00 0.00 0.00 0.00 0.00 0.00 0.00 0.00 0.00 0.00 0.00 0.00 0.02 0.04 0.04 0.04 0.06 0.10 0.16
0.00 0.00 0.00 0.00 0.00 0.00 0.00 0.00 0.00 0.00 0.00 0.00 0.00 0.00 0.00 0.00 0.00 0.00 0.00 0.00 0.00 0.00 0.00 0.00 0.00 0.00 0.00 0.00 0.00 0.00 0.00 0.00 0.00 0.00 0.01 0.01 0.05 0.06 0.05 0.07 0.10 0.11 0.16
0.00 0.00 0.00 0.00 0.00 0.00 0.00 0.00 0.00 0.00 0.00 0.00 0.00 0.00 0.00 0.00 0.00 0.00 0.00 0.00 0.00 0.00 0.00 0.00 0.00 0.00 0.00 0.00 0.00 0.00 0.00 0.00 0.00 0.01 0.03 0.05 0.06 0.06 0.07 0.11 0.14 0.14 0.15
0.00 0.00 0.00 0.00 0.00 0.00 0.00 0.00 0.00 0.00 0.00 0.00 0.00 0.00 0.00 0.00 0.00 0.00 0.00 0.00 0.00 0.00 0.00 0.00 0.00 0.00 0.00 0.00 0.00 0.00 0.00 0.00 0.01 0.02 0.04 0.07 0.08 0.07 0.09 0.11 0.15 0.14 0.16
0.00 0.00 0.00 0.00 0.00 0.00 0.00 0.00 0.00 0.00 0.00 0.00 0.00 0.00 0.00 0.00 0.00 0.00 0.00 0.00 0.00 0.00 0.00 0.00 0.00 0.00 0.01 0.01 0.00 0.01 0.01 0.01 0.02 0.03 0.04 0.05 0.05 0.05 0.07 0.08 0.12 0.12 0.11
0.00 0.00 0.00 0.00 0.00 0.00 0.00 0.00 0.00 0.00 0.00 0.00 0.00 0.00 0.00 0.00 0.00 0.00 0.00 0.00 0.00 0.00 0.00 0.00 0.00 0.00 0.01 0.01 0.00 0.01 0.02 0.03 0.05 0.06 0.06 0.07 0.08 0.08 0.09 0.09 0.10 0.11 0.10
MSLP
1014.60 1014.83 1014.98 1015.05 1015.06 1015.04 1015.04 1015.10 1015.26 1015.52 1015.88 1016.29 1016.72 1017.10 1017.40 1017.58 1017.64 1017.61 1017.51 1017.38 1017.26 1017.19 1017.17 1017.20 1017.25 1017.30 1017.31 1017.29 1017.21 1017.08 1016.92 1016.75 1016.59 1016.44 1016.31 1016.19 1016.06 1015.90 1015.70 1015.45 1015.15 1014.80 1014.42
1015.06 1015.36 1015.59 1015.71 1015.75 1015.74 1015.73 1015.76 1015.90 1016.14 1016.49 1016.90 1017.32 1017.70 1017.98 1018.14 1018.17 1018.09 1017.94 1017.77 1017.63 1017.53 1017.50 1017.52 1017.58 1017.63 1017.65 1017.62 1017.53 1017.40 1017.24 1017.07 1016.91 1016.78 1016.66 1016.55 1016.43 1016.27 1016.06 1015.79 1015.46 1015.08 1014.66
1015.41 1015.81 1016.13 1016.33 1016.43 1016.44 1016.43 1016.45 1016.56 1016.77 1017.09 1017.48 1017.89 1018.25 1018.52 1018.66 1018.67 1018.56 1018.39 1018.19 1018.01 1017.90 1017.85 1017.86 1017.90 1017.95 1017.97 1017.94 1017.85 1017.72 1017.56 1017.40 1017.25 1017.12 1017.01 1016.90 1016.78 1016.61 1016.39 1016.10 1015.74 1015.34 1014.89
1015.66 1016.18 1016.60 1016.90 1017.06 1017.11 1017.11 1017.11 1017.19 1017.37 1017.65 1018.01 1018.40 1018.75 1019.01 1019.15 1019.15 1019.03 1018.83 1018.62 1018.42 1018.27 1018.20 1018.19 1018.22 1018.26 1018.27 1018.23 1018.15 1018.02 1017.87 1017.70 1017.55 1017.42 1017.30 1017.18 1017.04 1016.86 1016.61 1016.30 1015.92 1015.49 1015.02
1015.85 1016.48 1017.01 1017.40 1017.63 1017.72 1017.73 1017.73 1017.78 1017.92 1018.16 1018.49 1018.86 1019.20 1019.46 1019.60 1019.60 1019.49 1019.29 1019.05 1018.83 1018.66 1018.55 1018.51 1018.51 1018.53 1018.53 1018.49 1018.40 1018.28 1018.12 1017.95 1017.79 1017.64 1017.49 1017.34 1017.17 1016.95 1016.68 1016.34 1015.94 1015.48 1014.99
1016.01 1016.74 1017.37 1017.85 1018.14 1018.27 1018.30 1018.29 1018.31 1018.42 1018.63 1018.93 1019.28 1019.62 1019.88 1020.03 1020.04 1019.93 1019.73 1019.48 1019.23 1019.02 1018.88 1018.80 1018.76 1018.75 1018.73 1018.68 1018.58 1018.45 1018.28 1018.10 1017.91 1017.73 1017.54 1017.35 1017.13 1016.87 1016.55 1016.18 1015.75 1015.28 1014.77
1016.16 1016.96 1017.68 1018.23 1018.59 1018.76 1018.80 1018.79 1018.79 1018.88 1019.07 1019.34 1019.67 1020.00 1020.27 1020.43 1020.45 1020.34 1020.13 1019.86 1019.59 1019.34 1019.15 1019.02 1018.94 1018.89 1018.85 1018.78 1018.67 1018.52 1018.34 1018.12 1017.90 1017.67 1017.43 1017.18 1016.91 1016.60 1016.24 1015.83 1015.38 1014.88 1014.36
1016.29 1017.16 1017.94 1018.55 1018.96 1019.17 1019.24 1019.24 1019.24 1019.31 1019.48 1019.74 1020.05 1020.37 1020.63 1020.78 1020.79 1020.68 1020.46 1020.17 1019.86 1019.57 1019.33 1019.16 1019.03 1018.95 1018.87 1018.77 1018.64 1018.47 1018.26 1018.01 1017.74 1017.46 1017.16 1016.85 1016.52 1016.16 1015.77 1015.33 1014.86 1014.35 1013.82
1016.39 1017.32 1018.15 1018.81 1019.27 1019.52 1019.62 1019.65 1019.66 1019.73 1019.88 1020.12 1020.41 1020.69 1020.93 1021.06 1021.05 1020.92 1020.67 1020.36 1020.01 1019.69 1019.41 1019.19 1019.03 1018.90 1018.79 1018.67 1018.51 1018.31 1018.07 1017.78 1017.46 1017.12 1016.77 1016.40 1016.02 1015.62 1015.19 1014.74 1014.26 1013.75 1013.21
1016.48 1017.44 1018.31 1019.01 1019.51 1019.81 1019.95 1020.01 1020.05 1020.12 1020.27 1020.47 1020.72 1020.96 1021.15 1021.23 1021.19 1021.02 1020.74 1020.39 1020.02 1019.67 1019.36 1019.11 1018.92 1018.77 1018.63 1018.48 1018.30 1018.07 1017.79 1017.46 1017.09 1016.70 1016.29 1015.88 1015.46 1015.03 1014.59 1014.12 1013.64 1013.13 1012.60
1016.57 1017.55 1018.44 1019.17 1019.70 1020.05 1020.24 1020.34 1020.40 1020.48 1020.61 1020.78 1020.98 1021.15 1021.26 1021.28 1021.18 1020.96 1020.64 1020.27 1019.88 1019.52 1019.20 1018.94 1018.74 1018.57 1018.42 1018.25 1018.04 1017.78 1017.46 1017.09 1016.68 1016.24 1015.79 1015.34 1014.89 1014.45 1013.99 1013.53 1013.05 1012.55 1012.03
1016.70 1017.69 1018.58 1019.32 1019.88 1020.26 1020.49 1020.62 1020.71 1020.80 1020.90 1021.02 1021.14 1021.23 1021.25 1021.18 1021.00 1020.73 1020.39 1020.00 1019.62 1019.26 1018.95 1018.71 1018.52 1018.35 1018.19 1018.01 1017.78 1017.49 1017.14 1016.73 1016.28 1015.81 1015.33 1014.85 1014.38 1013.91 1013.45 1012.98 1012.50 1012.00 1011.49
1016.91 1017.88 1018.76 1019.49 1020.05 1020.45 1020.71 1020.87 1020.97 1021.05 1021.11 1021.16 1021.19 1021.18 1021.10 1020.94 1020.69 1020.37 1020.01 1019.63 1019.26 1018.94 1018.67 1018.47 1018.30 1018.15 1017.99 1017.80 1017.55 1017.23 1016.85 1016.41 1015.92 1015.42 1014.91 1014.41 1013.91 1013.43 1012.95 1012.47 1011.98 1011.47 1010.95
1017.23 1018.17 1019.00 1019.70 1020.24 1020.64 1020.91 1021.07 1021.17 1021.22 1021.23 1021.20 1021.14 1021.01 1020.83 1020.57 1020.26 1019.91 1019.55 1019.19 1018.87 1018.61 1018.40 1018.24 1018.11 1017.98 1017.83 1017.63 1017.35 1017.01 1016.59 1016.12 1015.61 1015.08 1014.55 1014.02 1013.51 1013.00 1012.49 1011.97 1011.44 1010.91 1010.37
1017.69 1018.56 1019.32 1019.95 1020.45 1020.82 1021.07 1021.23 1021.30 1021.30 1021.24 1021.13 1020.96 1020.74 1020.46 1020.13 1019.77 1019.41 1019.06 1018.75 1018.50 1018.31 1018.17 1018.07 1017.98 1017.87 1017.72 1017.50 1017.20 1016.82 1016.37 1015.87 1015.33 1014.78 1014.22 1013.67 1013.12 1012.57 1012.02 1011.46 1010.88 1010.29 1009.71
1018.24 1019.02 1019.68 1020.23 1020.67 1020.98 1021.19 1021.31 1021.34 1021.29 1021.16 1020.96 1020.70 1020.39 1020.03 1019.65 1019.27 1018.92 1018.62 1018.38 1018.20 1018.09 1018.02 1017.97 1017.91 1017.81 1017.65 1017.40 1017.07 1016.66 1016.17 1015.63 1015.07 1014.49 1013.91 1013.32 1012.74 1012.15 1011.54 1010.91 1010.27 1009.62 1008.98
1018.84 1019.50 1020.05 1020.50 1020.85 1021.10 1021.26 1021.32 1021.30 1021.19 1020.99 1020.72 1020.39 1020.01 1019.61 1019.20 1018.83 1018.52 1018.27 1018.10 1018.01 1017.97 1017.96 1017.95 1017.91 1017.80 1017.61 1017.33 1016.95 1016.49 1015.96 1015.39 1014.80 1014.19 1013.58 1012.97 1012.35 1011.71 1011.05 1010.36 1009.64 1008.93 1008.24
1019.38 1019.92 1020.36 1020.71 1020.97 1021.15 1021.24 1021.25 1021.18 1021.02 1020.77 1020.45 1020.07 1019.66 1019.24 1018.85 1018.51 1018.25 1018.07 1017.98 1017.96 1017.98 1018.02 1018.02 1017.97 1017.84 1017.60 1017.27 1016.83 1016.32 1015.75 1015.14 1014.52 1013.88 1013.25 1012.61 1011.96 1011.28 1010.56 1009.82 1009.06 1008.29 1007.57
1019.81 1020.24 1020.57 1020.82 1021.00 1021.11 1021.15 1021.12 1021.00 1020.81 1020.53 1020.19 1019.79 1019.38 1018.99 1018.63 1018.35 1018.16 1018.06 1018.03 1018.07 1018.13 1018.18 1018.18 1018.10 1017.91 1017.62 1017.22 1016.72 1016.15 1015.53 1014.89 1014.23 1013.58 1012.92 1012.26 1011.58 1010.87 1010.13 1009.35 1008.57 1007.79 1007.07
1020.07 1020.41 1020.66 1020.83 1020.95 1021.00 1021.01 1020.94 1020.81 1020.59 1020.31 1019.98 1019.61 1019.23 1018.88 1018.59 1018.38 1018.26 1018.23 1018.26 1018.34 1018.41 1018.45 1018.42 1018.29 1018.03 1017.67 1017.19 1016.63 1016.00 1015.34 1014.66 1013.98 1013.30 1012.62 1011.94 1011.25 1010.53 1009.78 1009.01 1008.23 1007.49 1006.80
1020.19 1020.45 1020.63 1020.75 1020.82 1020.85 1020.83 1020.75 1020.62 1020.42 1020.16 1019.86 1019.54 1019.23 1018.95 1018.74 1018.61 1018.56 1018.58 1018.65 1018.74 1018.81 1018.81 1018.73 1018.52 1018.20 1017.75 1017.21 1016.58 1015.90 1015.19 1014.47 1013.76 1013.07 1012.37 1011.68 1010.98 1010.27 1009.54 1008.80 1008.08 1007.40 1006.80
1020.19 1020.40 1020.54 1020.62 1020.67 1020.68 1020.66 1020.59 1020.47 1020.30 1020.09 1019.85 1019.61 1019.38 1019.19 1019.07 1019.01 1019.02 1019.08 1019.17 1019.25 1019.28 1019.23 1019.08 1018.80 1018.40 1017.88 1017.26 1016.58 1015.85 1015.11 1014.36 1013.63 1012.91 1012.20 1011.50 1010.80 1010.11 1009.41 1008.74 1008.10 1007.52 1007.04
1020.15 1020.32 1020.43 1020.50 1020.53 1020.54 1020.52 1020.47 1020.39 1020.27 1020.13 1019.97 1019.81 1019.67 1019.58 1019.54 1019.55 1019.61 1019.69 1019.77 1019.82 1019.80 1019.68 1019.45 1019.09 1018.61 1018.03 1017.36 1016.63 1015.87 1015.10 1014.33 1013.57 1012.83 1012.12 1011.41 1010.72 1010.05 1009.40 1008.80 1008.26 1007.81 1007.47
1020.15 1020.28 1020.37 1020.42 1020.44 1020.46 1020.45 1020.43 1020.39 1020.33 1020.26 1020.19 1020.13 1020.09 1020.08 1020.11 1020.18 1020.26 1020.35 1020.40 1020.39 1020.30 1020.11 1019.79 1019.36 1018.82 1018.18 1017.48 1016.72 1015.94 1015.16 1014.38 1013.61 1012.86 1012.13 1011.42 1010.74 1010.09 1009.50 1008.98 1008.55 1008.22 1008.02
1020.21 1020.32 1020.38 1020.41 1020.43 1020.44 1020.45 1020.46 1020.46 1020.47 1020.48 1020.49 1020.52 1020.58 1020.65 1020.74 1020.84 1020.93 1020.99 1021.00 1020.92 1020.75 1020.48 1020.09 1019.59 1018.99 1018.32 1017.60 1016.84 1016.06 1015.28 1014.50 1013.73 1012.98 1012.25 1011.54 1010.87 1010.25 1009.71 1009.26 1008.92 1008.71 1008.63
1020.37 1020.44 1020.47 1020.47 1020.48 1020.49 1020.51 1020.55 1020.60 1020.67 1020.75 1020.85 1020.97 1021.10 1021.24 1021.37 1021.48 1021.56 1021.58 1021.52 1021.37 1021.12 1020.76 1020.30 1019.75 1019.12 1018.43 1017.71 1016.96 1016.21 1015.45 1014.69 1013.95 1013.20 1012.48 1011.79 1011.13 1010.54 1010.04 1009.65 1009.39 1009.27 1009.29
Thickness
5737 5735 5731 5728 5724 5720 5715 5709 5703 5698 5694 5689 5683 5677 5670 5664 5659 5654 5650 5647 5646 5643 5639 5634 5630 5626 5621 5617 5613 5610 5606 5600 5597 5593 5591 5593 5591 5587 5583 5577 5572 5569 5568
5730 5727 5722 5719 5716 5710 5704 5697 5692 5687 5684 5678 5672 5666 5659 5651 5645 5641 5638 5636 5633 5630 5625 5620 5614 5610 5606 5601 5596 5590 5585 5579 5573 5566 5563 5563 5569 5568 5562 5553 5547 5543 5540
5724 5719 5713 5709 5706 5700 5694 5688 5682 5677 5672 5667 5662 5656 5648 5640 5634 5630 5627 5623 5619 5615 5610 5604 5599 5594 5588 5581 5574 5567 5561 5554 5547 5540 5534 5530 5535 5537 5538 5531 5526 5520 5516
5719 5712 5706 5700 5697 5692 5687 5680 5673 5667 5661 5656 5650 5643 5635 5628 5623 5618 5613 5609 5605 5599 5593 5588 5582 5575 5569 5562 5554 5547 5539 5532 5524 5518 5513 5509 5509 5510 5514 5512 5508 5504 5500
5712 5705 5698 5693 5689 5684 5677 5669 5661 5654 5648 5645 5639 5632 5624 5617 5611 5605 5600 5595 5589 5583 5577 5571 5564 5558 5551 5544 5537 5531 5525 5517 5509 5503 5499 5497 5496 5496 5495 5495 5494 5493 5491
5702 5696 5689 5684 5678 5672 5666 5658 5649 5641 5637 5633 5627 5619 5611 5603 5596 5590 5585 5579 5573 5567 5562 5555 5549 5543 5536 5531 5525 5520 5515 5509 5502 5496 5490 5486 5483 5483 5481 5481 5483 5482 5485
5692 5685 5678 5671 5666 5660 5653 5646 5638 5630 5625 5619 5613 5606 5598 5591 5583 5577 5570 5564 5557 5552 5547 5541 5536 5531 5526 5521 5516 5511 5507 5501 5495 5489 5483 5479 5475 5473 5471 5471 5473 5475 5480
5681 5675 5667 5661 5655 5648 5640 5633 5626 5619 5613 5607 5599 5593 5586 5579 5571 5564 5557 5551 5544 5538 5532 5528 5524 5520 5516 5511 5506 5501 5496 5492 5486 5482 5477 5473 5470 5467 5465 5463 5463 5466 5472
5673 5666 5658 5653 5646 5637 5628 5621 5615 5608 5602 5595 5588 5581 5575 5568 5560 5553 5546 5538 5531 5525 5520 5517 5514 5510 5506 5501 5496 5491 5485 5481 5477 5473 5469 5466 5464 5463 5461 5459 5457 5456 5463
5665 5657 5650 5645 5636 5625 5617 5612 5605 5598 5592 5585 5578 5570 5563 5556 5549 5541 5532 5525 5518 5514 5512 5509 5505 5502 5497 5492 5485 5480 5475 5470 5465 5462 5459 5457 5456 5456 5456 5456 5455 5453 5454
5657 5649 5642 5635 5624 5613 5607 5602 5595 5587 5580 5573 5565 5558 5551 5543 5536 5528 5520 5514 5510 5507 5505 5501 5497 5493 5487 5481 5475 5469 5465 5459 5454 5450 5448 5447 5447 5448 5450 5452 5453 5452 5449
5649 5640 5631 5621 5610 5603 5598 5591 5585 5578 5570 5562 5554 5547 5540 5533 5526 5518 5511 5506 5503 5500 5497 5493 5489 5484 5479 5472 5466 5459 5454 5448 5443 5440 5438 5438 5439 5440 5443 5446 5449 5449 5447
5637 5626 5616 5607 5599 5593 5588 5582 5575 5568 5560 5552 5543 5536 5530 5524 5516 5509 5504 5500 5497 5493 5489 5485 5481 5476 5469 5462 5456 5448 5442 5437 5434 5431 5430 5430 5431 5434 5437 5440 5444 5446 5446
5623 5612 5601 5593 5588 5582 5576 5569 5562 5557 5550 5542 5533 5527 5521 5515 5508 5502 5498 5496 5492 5487 5483 5478 5473 5467 5459 5452 5445 5438 5433 5428 5426 5425 5424 5424 5424 5427 5431 5435 5439 5441 5443
5608 5598 5587 5580 5575 5569 5564 5558 5552 5546 5540 5532 5524 5518 5512 5507 5502 5497 5494 5491 5486 5481 5476 5470 5464 5457 5449 5442 5435 5429 5425 5421 5419 5419 5419 5419 5421 5424 5426 5430 5433 5437 5440
5596 5588 5580 5573 5566 5560 5553 5547 5541 5535 5528 5520 5514 5509 5505 5501 5496 5493 5489 5485 5479 5473 5467 5460 5454 5447 5440 5433 5425 5419 5415 5413 5412 5412 5412 5413 5416 5418 5420 5424 5430 5435 5440
5585 5578 5569 5562 5554 5546 5540 5535 5529 5522 5516 5511 5507 5504 5500 5496 5492 5488 5483 5477 5470 5464 5457 5450 5443 5435 5427 5420 5412 5408 5406 5404 5405 5405 5405 5408 5411 5413 5416 5422 5429 5436 5442
5574 5566 5558 5548 5539 5535 5531 5525 5517 5511 5508 5505 5502 5500 5496 5491 5486 5482 5476 5469 5461 5454 5446 5437 5430 5421 5412 5405 5400 5398 5395 5396 5397 5399 5400 5402 5405 5409 5412 5419 5428 5437 5446
5559 5552 5545 5538 5533 5529 5523 5514 5507 5504 5503 5501 5498 5496 5492 5487 5482 5477 5470 5462 5453 5443 5433 5424 5415 5406 5398 5393 5389 5387 5385 5387 5390 5393 5396 5399 5401 5405 5409 5417 5426 5437 5448
5547 5542 5537 5533 5528 5521 5513 5504 5501 5500 5499 5498 5496 5494 5489 5484 5479 5471 5463 5454 5442 5430 5420 5409 5399 5392 5386 5382 5380 5380 5379 5380 5384 5389 5393 5396 5399 5402 5408 5415 5424 5435 5445
5541 5536 5531 5525 5518 5511 5504 5500 5499 5498 5498 5496 5493 5490 5485 5478 5470 5460 5451 5440 5427 5416 5405 5395 5387 5382 5378 5375 5374 5374 5374 5376 5379 5384 5389 5394 5397 5401 5407 5414 5423 5432 5441
5535 5529 5521 5514 5508 5504 5500 5499 5497 5497 5495 5492 5487 5481 5475 5468 5458 5447 5437 5425 5414 5402 5392 5385 5378 5374 5372 5370 5370 5371 5371 5373 5376 5382 5387 5392 5396 5401 5407 5416 5423 5432 5440
5525 5520 5513 5507 5503 5501 5498 5497 5495 5494 5490 5484 5478 5471 5464 5453 5444 5434 5423 5412 5402 5392 5384 5377 5370 5368 5368 5366 5366 5367 5369 5371 5375 5380 5385 5391 5396 5402 5409 5416 5424 5432 5437
5517 5512 5507 5503 5500 5499 5498 5496 5493 5489 5483 5476 5469 5461 5450 5440 5431 5423 5414 5404 5394 5385 5377 5370 5366 5364 5364 5363 5362 5363 5365 5368 5373 5378 5384 5390 5395 5402 5408 5416 5423 5430 5435
5509 5506 5503 5500 5497 5496 5495 5493 5488 5483 5475 5468 5461 5451 5441 5431 5421 5413 5404 5397 5388 5379 5370 5364 5361 5361 5360 5358 5357 5358 5362 5365 5370 5376 5384 5390 5395 5401 5407 5414 5421 5428 5434
5505 5502 5499 5496 5493 5493 5492 5488 5483 5477 5469 5460 5451 5442 5433 5423 5413 5404 5397 5391 5383 5375 5366 5360 5357 5357 5355 5356 5357 5359 5362 5367 5373 5379 5384 5389 5394 5399 5404 5411 5419 5426 5431